カタログに戻る

COSMOS 1725

運用中軍事PO
NORAD 16493·PAYLOAD·🇷🇺 Russia

打ち上げ Jan 16, 1986 から Plesetsk Cosmodrome

Loading…

次のパス (今後24時間)

TLE

最新Source: Space-Track

元期: Sep 14, 2026, 21:03 UTC

1 16493U 86005A   26257.87715870  .00000044  00000-0  29961-4 0  9996
2 16493  82.9309 116.7161 0021166 305.1649  81.5726 13.74929718 84522

AllMySatでCOSMOS 1725をリアルタイム追跡

Download on the App Store